GFSFLT2_700_spd_000.txt.gz
Wind_Speed
3 3 9 14 17 18 18 17 17 19 24 26 27 24 25 24 23 23 22 22 20 21 27 27 27 25 25 27 27 25 23 25
6 10 13 17 22 22 23 24 20 18 18 25 29 30 28 28 27 25 24 24 23 24 26 27 29 29 31 32 28 29 31 31
11 14 19 22 22 23 22 20 20 21 20 18 21 24 30 33 34 33 31 24 25 27 29 31 34 36 35 33 34 29 29 36
14 19 23 23 23 21 19 18 20 20 21 21 25 28 25 31 37 35 32 36 29 25 31 31 33 36 37 36 39 42 40 39
21 21 22 20 16 13 15 16 19 20 21 23 24 24 25 26 39 54 33 45 16 29 24 30 35 36 38 35 36 42 42 49
20 20 15 11 10 12 13 15 18 20 20 21 23 27 28 27 28 31 29 45 30 32 29 11 39 24 31 32 30 36 34 38
15 10 12 9 9 10 12 14 16 17 17 19 21 24 24 24 24 26 26 26 39 41 32 38 29 16 27 31 34 30 33 32
10 12 10 10 11 12 14 16 18 19 20 21 22 23 25 26 25 25 24 27 22 16 15 20 26 32 33 29 30 39 38 39
15 14 12 12 12 13 14 16 18 19 21 22 22 23 26 28 28 28 27 27 26 26 23 19 17 12 20 26 34 33 36 41
18 18 17 17 17 19 20 21 22 24 26 27 27 28 29 32 34 34 32 31 31 29 26 24 25 28 23 27 28 36 34 39
23 23 23 23 24 25 26 27 28 29 29 29 28 29 32 35 36 34 32 33 32 29 26 24 25 29 30 30 32 33 35 35
27 27 28 28 28 29 30 31 32 32 32 31 30 32 35 38 34 33 35 34 33 31 30 30 30 31 31 33 35 34 33 34
29 30 30 31 30 30 31 33 33 33 33 32 33 35 36 36 37 36 37 38 37 36 35 34 33 35 34 35 35 36 37 40
32 32 33 33 33 33 33 33 34 35 36 38 38 36 36 39 41 40 38 36 38 37 36 35 36 37 36 38 39 39 40 41
31 34 34 35 35 34 33 33 34 36 39 40 43 40 42 44 42 41 41 40 36 33 32 32 34 35 37 38 39 42 43 42
30 31 33 33 31 31 30 31 32 36 38 40 40 44 44 43 42 41 39 37 36 35 31 30 32 33 35 38 40 43 45 47
24 27 31 32 29 29 28 31 35 38 41 41 41 41 42 42 42 42 41 40 39 38 36 33 31 34 36 39 42 45 46 48
35 35 34 33 32 31 31 34 38 40 40 39 42 42 43 44 45 45 45 44 43 43 42 42 39 38 38 38 42 45 47 48
31 32 32 35 34 35 37 39 38 39 40 42 43 45 47 47 48 48 48 47 46 45 45 45 45 44 43 43 42 43 48 51
31 32 32 35 37 40 42 41 39 41 42 44 47 47 50 51 50 50 49 47 46 45 46 47 48 49 48 45 44 43 42 46

GFSFLT2_700_spd_003.txt.gz
Wind_Speed
6 7 9 11 14 16 19 20 20 20 21 21 21 22 18 20 24 26 27 28 25 26 28 28 28 27 28 28 27 27 26 25
9 12 14 16 20 20 21 20 20 20 19 19 21 22 20 19 23 24 28 29 31 31 29 27 27 29 29 32 28 28 26 25
13 15 17 20 24 25 25 22 19 17 17 19 18 20 20 23 21 25 26 29 34 34 33 29 31 31 31 33 33 32 32 30
16 18 22 24 24 23 21 16 14 15 15 15 17 17 17 18 18 19 20 31 32 37 44 34 32 33 33 34 34 34 34 37
20 24 23 22 20 15 15 13 14 14 15 15 16 17 19 20 19 18 22 28 29 36 44 31 38 33 29 29 37 35 36 38
23 23 20 14 14 15 16 14 14 16 16 16 17 18 20 22 20 21 23 24 22 32 17 55 24 21 25 19 21 34 36 39
20 14 11 13 11 12 14 13 14 16 17 17 18 19 20 20 21 21 24 27 30 32 22 16 30 42 44 41 29 36 31 33
15 14 16 16 15 16 16 17 17 19 20 20 21 20 20 22 24 24 26 28 29 28 25 22 16 16 9 17 24 25 30 26
17 19 19 19 20 21 22 22 23 23 24 24 25 25 26 27 27 27 27 29 30 30 29 25 24 21 16 18 20 21 25 26
23 24 25 24 26 26 27 29 30 31 32 33 33 32 31 30 30 31 32 31 29 30 29 28 26 25 27 24 26 28 30 28
27 28 29 29 30 31 31 32 35 36 36 36 36 35 34 33 32 32 34 35 32 29 32 33 31 29 27 27 31 30 29 31
33 32 33 32 34 34 36 36 37 38 38 39 35 35 34 33 36 37 38 38 38 37 34 35 37 35 33 32 35 34 33 32
33 35 36 35 35 36 38 38 39 37 38 38 36 35 36 35 36 38 39 39 40 40 38 37 38 40 39 36 37 35 35 35
30 31 35 33 36 36 36 37 38 37 38 40 36 36 36 37 40 38 39 40 40 41 39 36 37 38 41 41 39 37 36 40
35 37 36 35 30 36 35 34 34 37 37 38 39 41 40 40 41 39 40 38 37 36 37 37 35 36 37 40 41 41 42 41
33 30 28 30 31 30 36 34 35 29 21 26 33 36 39 38 36 37 38 37 37 37 32 35 36 35 34 34 37 41 43 47
32 31 33 35 39 39 35 36 34 34 35 39 41 39 40 41 42 42 43 42 41 40 40 38 36 36 33 31 35 38 40 45
31 31 31 35 36 39 35 37 36 37 40 44 43 41 43 43 46 47 48 50 49 47 44 43 43 41 39 37 37 37 38 39
35 35 36 34 40 39 39 41 41 42 43 46 42 41 42 45 47 48 51 53 52 50 49 47 45 44 44 43 42 42 41 42
35 41 43 38 38 43 42 45 46 45 47 50 46 44 47 46 48 51 55 55 53 51 49 48 46 46 46 46 47 48 46 45

GFSFLT2_700_spd_006.txt.gz
Wind_Speed
17 14 14 14 16 19 20 21 22 23 24 21 19 19 16 15 18 22 24 24 23 27 25 23 23 28 29 30 29 28 24 24
14 17 20 20 19 20 22 22 23 22 22 21 18 18 19 20 18 18 20 23 25 25 27 28 28 31 29 33 32 29 27 27
14 16 17 19 25 26 24 23 22 18 17 18 18 15 14 14 14 14 13 18 23 25 27 28 30 34 37 37 40 33 29 29
16 16 19 22 26 26 25 18 15 13 13 13 14 13 12 12 12 14 14 13 15 24 29 27 28 37 42 44 42 41 38 34
18 20 23 24 25 23 21 16 16 14 15 14 13 12 13 14 15 15 16 16 16 18 16 24 33 43 45 38 41 40 42 42
21 22 24 22 17 19 20 20 18 17 15 16 16 16 17 18 18 18 19 20 20 20 19 21 30 29 33 30 32 28 41 44
22 21 18 13 18 18 20 22 22 22 21 20 21 21 23 23 23 25 26 26 27 27 27 28 25 24 19 22 19 41 34 42
23 19 16 19 20 20 21 23 25 26 25 24 24 23 24 24 26 27 25 26 25 25 26 27 26 24 21 19 10 13 17 24
20 19 19 22 24 25 25 25 27 29 29 29 29 28 29 30 32 33 33 30 29 29 27 26 28 26 23 22 18 19 19 15
22 24 27 27 30 29 31 31 32 33 35 33 34 34 34 35 34 33 32 33 31 29 29 28 28 31 28 25 26 28 28 27
25 26 30 33 33 32 35 35 35 38 37 38 37 37 36 37 38 36 34 34 36 35 35 34 31 31 34 31 29 31 33 34
28 32 35 35 34 33 36 36 36 39 40 42 38 38 36 35 37 36 35 36 38 36 37 37 37 36 35 37 34 34 34 35
28 30 30 32 32 33 34 36 36 38 37 40 40 38 36 33 34 37 37 37 38 39 39 39 37 37 39 39 39 37 36 36
25 29 35 36 32 32 32 33 35 37 37 40 41 36 37 39 37 37 38 39 40 40 40 39 35 35 39 40 41 39 35 39
31 35 34 35 34 27 34 36 32 35 38 37 36 32 35 35 38 38 39 41 39 37 36 35 37 35 35 37 40 43 42 36
34 34 34 34 37 39 32 38 40 35 36 37 31 28 32 36 37 34 33 38 40 39 37 37 39 41 40 38 37 41 45 47
30 29 31 32 34 37 40 34 38 37 37 39 37 37 42 45 45 48 42 37 43 44 43 42 42 44 42 41 39 39 39 45
28 32 32 32 33 34 39 41 36 41 42 45 47 48 48 50 54 53 42 40 42 44 46 49 50 48 45 44 43 41 40 40
34 40 42 41 39 37 39 40 42 41 45 49 49 52 51 47 49 53 42 42 42 46 49 52 52 50 46 43 42 42 41 41
36 35 36 40 43 46 46 43 45 46 47 51 54 49 50 55 58 53 43 47 48 48 52 53 51 48 46 43 42 42 42 42

GFSFLT2_700_spd_009.txt.gz
Wind_Speed
15 17 18 18 18 18 19 19 19 19 20 21 17 16 14 13 14 16 17 17 20 21 22 21 17 19 21 17 18 26 24 25
21 21 20 19 20 18 19 21 20 20 20 19 16 15 15 13 15 16 15 18 19 20 22 23 21 17 19 21 25 27 27 26
19 23 23 23 26 26 24 22 22 19 16 15 15 14 14 12 13 13 13 14 14 15 18 20 22 22 20 23 28 32 35 34
12 14 18 22 27 27 26 22 18 15 18 15 14 14 12 11 11 13 14 12 12 11 13 16 16 17 20 22 30 37 40 39
14 16 19 21 23 21 16 15 14 17 17 16 15 16 17 16 16 15 14 14 13 15 16 14 15 17 26 29 35 35 41 39
13 19 20 19 17 16 19 16 18 18 18 19 20 20 20 20 21 20 20 21 22 20 18 16 15 18 22 25 23 19 32 36
16 19 19 18 15 19 20 19 20 21 21 23 24 24 24 23 23 23 24 23 23 23 23 22 22 19 18 20 20 19 18 23
19 20 18 17 17 20 23 23 24 26 25 25 27 26 26 26 26 26 27 28 29 28 26 25 24 25 23 19 18 17 18 25
18 20 19 19 21 23 26 27 28 29 28 29 31 31 33 33 33 33 32 32 31 31 30 28 27 24 23 24 22 22 25 21
23 22 21 22 26 29 32 30 29 31 30 30 33 33 34 36 36 36 37 37 34 32 33 33 31 29 26 26 28 28 27 29
28 26 26 26 30 32 32 32 31 34 34 29 30 32 33 35 36 35 37 38 38 35 34 34 34 33 33 32 31 33 31 32
27 27 26 28 28 30 34 34 34 35 36 35 30 29 30 33 35 35 36 37 39 36 36 36 36 37 39 40 37 35 35 34
27 28 27 30 32 30 28 29 28 29 30 34 38 35 31 30 34 38 38 37 36 37 38 39 41 41 41 39 39 39 37 36
26 27 29 30 28 27 29 30 31 32 32 33 36 37 37 36 33 35 38 36 35 37 37 38 36 39 41 40 40 37 36 36
35 32 29 30 32 32 32 34 35 32 34 35 37 38 35 33 35 34 35 38 40 40 38 34 34 32 33 34 39 42 40 37
27 30 28 32 35 36 35 33 34 35 34 35 38 41 42 40 37 38 39 41 44 47 44 44 39 35 34 36 38 41 45 47
29 31 31 32 33 34 36 38 35 33 35 38 41 43 43 39 41 44 43 38 38 41 53 41 40 40 41 41 43 44 44 46
32 35 42 43 38 33 32 36 38 39 38 39 40 44 46 48 50 48 45 45 53 57 35 46 46 44 42 43 45 48 48 45
35 35 42 47 41 39 39 42 44 46 47 46 44 45 49 52 50 54 56 56 59 50 59 59 45 42 41 44 46 47 45 44
40 39 40 46 41 38 40 41 46 49 52 49 50 50 52 56 58 59 61 61 62 56 51 42 40 41 42 44 45 45 44 42

GFSFLT2_700_spd_012.txt.gz
Wind_Speed
14 14 12 13 16 16 17 19 21 22 22 23 23 22 19 17 17 17 17 17 16 19 18 20 21 17 15 11 14 16 29 25
13 13 13 15 17 16 18 19 19 18 16 15 15 15 15 15 15 14 14 13 13 13 13 15 17 18 19 16 14 15 22 28
13 16 17 19 21 22 22 18 14 13 12 16 14 12 12 12 13 13 13 13 12 10 9 11 13 15 17 19 19 17 19 23
16 17 20 22 23 22 16 15 13 13 14 15 14 13 13 13 14 13 12 12 11 11 11 12 13 14 11 15 17 18 23 28
10 15 18 19 18 15 16 17 15 15 16 17 17 16 15 15 16 17 19 18 17 16 15 16 16 15 15 18 22 26 29 29
13 16 17 17 13 11 14 16 16 16 17 18 19 19 19 18 18 19 20 20 20 20 20 19 20 20 19 18 19 23 28 30
13 16 19 18 15 15 17 19 20 21 22 23 24 24 24 23 22 23 23 24 25 25 25 25 24 24 25 25 23 22 23 22
18 18 20 19 17 18 20 23 25 25 24 25 27 27 28 28 28 28 27 28 28 29 29 29 29 28 27 28 28 25 22 22
21 19 19 21 21 22 24 27 29 27 26 27 29 30 31 31 31 31 30 31 31 32 32 32 32 32 31 30 30 29 26 24
24 25 22 21 21 24 27 27 26 27 27 28 28 29 31 32 32 32 32 31 31 32 32 32 31 32 33 33 32 31 30 31
27 29 29 27 25 24 26 29 28 25 24 25 26 28 29 30 29 30 32 33 32 32 32 32 33 33 33 33 34 34 34 35
26 30 32 30 29 30 27 25 26 27 25 21 21 23 26 29 30 31 33 34 33 33 35 36 35 35 34 34 34 34 36 38
23 29 27 27 26 26 28 28 28 28 28 28 27 24 24 26 30 32 32 33 35 34 34 34 33 36 37 38 34 36 35 36
22 29 25 26 26 28 31 31 31 30 29 31 32 32 31 32 33 34 35 37 38 36 36 36 38 38 39 36 39 36 34 31
28 33 29 29 30 32 35 34 33 32 32 33 34 36 37 38 38 39 36 39 41 39 41 43 44 44 42 42 43 44 40 35
34 36 30 30 35 37 39 39 38 34 35 35 35 38 40 40 42 43 42 43 43 46 47 46 46 47 45 47 48 47 45 47
36 39 36 33 36 40 43 43 41 39 36 37 39 41 42 42 43 46 48 47 47 50 50 52 47 46 47 58 50 50 45 44
41 39 37 33 32 41 45 39 41 39 37 38 39 44 47 47 44 47 50 52 54 54 54 53 50 50 58 55 51 45 43 44
40 38 32 32 34 46 39 39 39 38 39 41 41 47 51 48 48 52 53 56 58 58 57 62 57 59 47 55 58 43 43 44
26 32 32 35 50 45 42 41 39 41 42 43 45 42 47 51 54 56 57 57 56 60 63 61 55 53 55 55 46 43 41 43

GFSFLT2_700_spd_015.txt.gz
Wind_Speed
9 10 11 14 15 15 17 18 19 17 15 14 13 10 9 9 11 11 12 12 13 14 15 15 17 18 18 18 18 15 20 19
12 9 10 12 14 14 15 13 12 10 9 12 12 11 10 9 9 9 9 8 9 12 12 10 9 9 13 17 18 19 18 18
7 7 9 13 14 14 10 10 8 7 6 7 8 8 10 11 10 10 11 11 10 10 11 10 11 12 10 13 17 20 19 20
7 11 13 16 18 13 6 10 11 11 11 12 13 13 13 12 12 12 12 13 13 14 15 15 17 17 17 13 15 19 22 23
11 14 16 17 18 14 10 10 12 13 14 14 15 16 16 15 16 16 16 16 16 16 16 17 18 19 20 18 17 22 24 29
15 17 19 20 18 16 13 13 14 16 18 18 18 19 20 22 21 20 20 20 21 21 21 22 23 22 22 22 24 22 24 26
13 16 17 18 18 17 17 18 19 21 23 22 21 21 22 24 25 25 25 25 25 25 26 26 27 27 28 27 27 28 27 26
13 17 20 20 21 21 21 22 24 25 25 25 25 25 26 26 27 28 29 28 27 28 28 28 29 30 31 31 31 30 31 31
14 18 22 23 24 24 24 25 27 28 28 27 28 29 28 29 29 29 29 30 30 30 30 30 30 31 31 32 33 33 33 33
16 19 23 24 24 23 22 24 26 27 28 28 28 28 29 30 30 31 30 29 29 29 29 30 30 31 31 32 33 34 36 36
17 19 24 23 20 20 21 21 23 23 24 25 26 27 28 29 29 30 32 32 32 32 32 31 31 33 33 34 35 35 35 37
18 16 22 23 24 27 25 24 26 28 28 27 27 26 28 29 29 31 32 32 31 31 31 31 32 34 35 34 34 34 36 37
20 18 23 27 26 31 29 28 28 29 31 31 31 30 30 30 31 31 32 33 33 33 34 33 33 33 34 34 36 37 35 36
22 19 28 28 26 30 31 30 29 33 32 32 34 33 32 33 33 34 34 36 37 38 39 39 37 37 38 38 42 38 36 34
18 27 28 27 29 30 36 40 35 36 31 31 34 36 37 37 37 37 38 39 41 42 43 44 43 41 42 43 47 48 44 41
32 31 34 33 35 37 36 40 43 45 37 34 33 36 39 40 40 40 41 44 46 44 46 48 48 46 46 46 47 51 50 51
34 35 34 34 37 36 36 38 45 49 44 42 40 39 41 42 42 42 44 47 49 48 48 52 51 52 52 53 50 53 51 52
33 32 33 38 37 38 39 40 53 53 47 43 44 44 45 47 48 47 48 52 56 52 53 57 55 58 60 53 56 55 52 52
31 32 33 40 40 42 46 51 49 45 45 47 46 46 45 46 47 49 50 54 58 55 61 56 63 65 58 58 58 53 48 49
31 32 36 43 46 49 51 49 47 45 45 46 45 48 50 52 51 46 44 52 57 62 57 60 59 53 54 48 45 49 49 55

GFSFLT2_700_spd_021.txt.gz
Wind_Speed
4 7 8 7 9 10 10 7 7 5 4 3 4 5 5 4 6 8 11 13 14 15 15 15 17 18 18 20 21 23 23 23
6 4 4 4 5 7 7 6 6 6 3 3 3 3 4 5 4 5 6 7 8 10 11 10 10 11 12 12 13 17 22 23
3 4 3 3 6 7 7 6 7 7 6 8 9 9 9 9 9 10 10 10 11 13 14 14 14 13 13 15 15 15 15 20
2 1 1 4 7 8 8 6 8 8 9 11 12 13 14 14 13 14 14 14 15 16 16 18 18 19 19 19 19 17 15 15
3 4 9 10 10 9 8 8 10 12 13 14 16 18 17 17 18 19 19 19 20 21 21 21 21 22 23 23 23 22 20 20
3 10 11 12 12 11 11 11 11 14 16 17 18 18 18 20 21 22 24 25 25 26 26 26 27 27 28 28 28 27 27 25
6 8 9 10 12 12 12 12 12 14 16 19 21 22 22 23 24 25 26 27 29 30 30 31 32 32 32 32 32 32 32 31
4 6 7 10 11 11 13 14 15 14 15 17 19 20 21 23 24 25 27 28 29 30 31 32 32 32 33 35 35 35 35 35
4 6 9 12 13 15 17 21 21 16 16 20 21 22 23 23 24 25 26 28 30 31 32 32 32 32 32 33 34 35 36 37
5 8 11 13 17 18 22 22 23 19 19 20 21 23 25 27 27 27 28 28 29 30 31 32 31 32 32 33 34 35 36 37
10 12 16 18 22 25 26 24 22 22 23 22 25 25 26 28 30 30 30 29 29 30 31 33 33 34 35 34 34 34 35 36
14 16 20 21 23 24 26 26 24 25 28 28 29 29 30 33 33 33 34 34 32 32 33 33 34 34 36 36 35 34 35 36
13 14 17 18 21 24 26 23 22 25 26 29 31 33 33 38 35 33 36 38 37 38 37 37 38 36 38 37 37 36 36 35
9 12 15 18 22 25 26 26 25 25 26 30 31 37 39 42 40 39 37 38 40 40 42 44 43 40 42 41 45 44 41 36
13 13 17 22 25 27 29 31 32 33 34 37 39 42 40 41 41 41 42 44 45 44 44 46 49 47 43 44 48 50 45 44
14 18 21 25 29 33 35 36 37 37 41 46 46 42 42 44 46 44 45 46 47 48 48 47 48 51 50 51 53 52 52 50
21 23 26 29 33 36 38 39 41 42 45 46 44 46 48 49 46 45 46 47 49 51 51 52 50 50 53 54 56 55 54 54
26 28 31 33 36 39 44 47 46 46 47 46 46 46 43 44 47 48 49 50 50 52 54 56 56 53 52 55 57 56 61 59
32 34 34 40 45 48 46 46 46 44 44 43 44 45 48 50 51 51 50 51 52 51 49 49 50 49 48 49 53 56 64 67
32 37 40 42 44 46 43 41 40 40 40 42 46 50 52 55 56 55 55 53 50 44 40 38 38 35 38 44 50 50 49 43